EW7939 Weather Reports


time (UTC)temp
C
wind
direction
speed
KPH
gust
KPH
rain 1hr
cm
rain 24hr
cm
rain mn
cm
humidity
%
barometer
mb
20260504234548 26 254 4.8 12.9 0.00 0.00 0.00 46 998.1
20260504233102 26 257 6.4 14.5 0.00 0.00 0.00 41 998.2
20260504231543 27 255 11.3 20.9 0.00 0.00 0.00 39 998.3
20260504230042 28 223 9.7 27.4 0.00 0.00 0.00 40 998.4
20260504224541 28 288 9.7 24.1 0.00 0.00 0.00 40 998.4
20260504223055 28 252 12.9 27.4 0.00 0.00 0.00 40 998.5
20260504221539 28 293 12.9 25.7 0.00 0.00 0.00 39 998.5
20260504220037 28 277 12.9 27.4 0.00 0.00 0.00 40 998.4
20260504214535 28 249 12.9 29.0 0.00 0.00 0.00 41 998.3
20260504213046 28 264 11.3 24.1 0.00 0.00 0.00 43 998.5
20260504211534 27 239 12.9 25.7 0.00 0.00 0.00 42 998.6
20260504210030 27 245 14.5 24.1 0.00 0.00 0.00 42 998.6
20260504204539 27 235 12.9 30.6 0.00 0.00 0.00 42 998.7
20260504203026 27 221 14.5 27.4 0.00 0.00 0.00 43 999.0
20260504201521 27 243 11.3 32.2 0.00 0.00 0.00 44 999.2
20260504200021 27 229 12.9 19.3 0.00 0.00 0.00 45 999.3
20260504194517 26 217 11.3 27.4 0.00 0.00 0.00 46 999.4
20260504193016 26 221 11.3 20.9 0.00 0.00 0.00 45 999.6
20260504191511 26 239 11.3 24.1 0.00 0.00 0.00 45 999.7
20260504190008 26 290 8.0 22.5 0.00 0.00 0.00 47 999.8
20260504184506 25 290 9.7 24.1 0.00 0.00 0.00 46 1000.0
20260504183003 25 219 9.7 24.1 0.00 0.00 0.00 49 1000.0
20260504181502 25 190 9.7 29.0 0.00 0.00 0.00 48 1000.0
20260504180058 25 290 11.3 24.1 0.00 0.00 0.00 48 1000.1
20260504174609 25 239 8.0 27.4 0.00 0.00 0.00 49 1000.2
20260504173052 24 292 12.9 22.5 0.00 0.00 0.00 47 1000.4
20260504171553 24 259 16.1 25.7 0.00 0.00 0.00 48 1000.5
20260504081528 13 268 0.0 3.2 0.00 0.00 0.00 82 1004.3
20260504050004 15 275 0.0 0.0 0.00 0.00 0.00 70 1005.4
20260504044507 15 275 0.0 0.0 0.00 0.00 0.00 70 1005.7
20260504043003 15 275 0.0 0.0 0.00 0.00 0.00 71 1005.9
20260504041600 15 275 0.0 0.0 0.00 0.00 0.00 70 1006.1
20260504040116 16 275 0.0 0.0 0.00 0.00 0.00 68 1006.1
20260504034634 16 275 0.0 0.0 0.00 0.00 0.00 66 1006.3
20260504033059 16 275 0.0 0.0 0.00 0.00 0.00 63 1006.3
20260504031559 17 275 0.0 0.0 0.00 0.00 0.00 63 1006.4
20260504030121 17 275 0.0 0.0 0.00 0.00 0.00 60 1006.5
20260504024601 18 275 0.0 0.0 0.00 0.00 0.00 57 1006.4
20260504023057 18 275 0.0 0.0 0.00 0.00 0.00 55 1006.3
20260504021558 18 275 0.0 0.0 0.00 0.00 0.00 55 1006.2
20260504020107 20 275 0.0 0.0 0.00 0.00 0.00 53 1006.0
20260504014604 20 275 0.0 0.0 0.00 0.00 0.00 50 1006.1
20260504013056 21 275 0.0 0.0 0.00 0.00 0.00 47 1006.0
20260504011554 22 275 0.0 0.0 0.00 0.00 0.00 46 1006.0
20260504010053 23 275 0.0 1.6 0.00 0.00 0.00 44 1006.0
20260504004553 24 275 0.0 0.0 0.00 0.00 0.00 41 1006.0
20260504003052 25 275 0.0 1.6 0.00 0.00 0.00 40 1006.0
20260504001602 25 275 0.0 4.8 0.00 0.00 0.00 39 1006.0
20260504000055 25 275 0.0 9.7 0.00 0.00 0.00 38 1006.1